Weather History for KPVB - June, 2013

Change the Weather History Date:

Friday, June 28, 2013

  Actual Average (KDBQ) Record (KDBQ)
Temperature  
Mean Temperature 69 °F 71 °F  
Max Temperature 78 °F 81 °F 104 °F (1934)
Min Temperature 61 °F 61 °F 46 °F (1968)
Degree Days  
Heating Degree Days 0 0  
Month to date heating degree days 40  
Since 1 June heating degree days 40  
Since 1 July heating degree days 7086  
Cooling Degree Days 4 7  
Month to date cooling degree days 126  
Year to date cooling degree days 163  
Since 1 June cooling degree days 126  
Growing Degree Days 19 (Base 50)    
Moisture  
Dew Point 60 °F    
Average Humidity 74    
Maximum Humidity 91    
Minimum Humidity 51    
Precipitation  
Precipitation 0.23 in 0.14 in 1.97 in (1945)
Month to date precipitation 4.13  
Year to date precipitation 17.00  
Snow  
Snow 0.00 in 0.00 in - ()
Month to date snowfall 0.0  
Since 1 June snowfall 0.0  
Since 1 July snowfall 41.9  
Snow Depth -    
Sea Level Pressure  
Sea Level Pressure 29.74 in    
Wind  
Wind Speed 9 mph (WNW)    
Max Wind Speed 17 mph    
Max Gust Speed 25 mph    
Visibility 10 miles    
Events      
T = Trace of Precipitation, MM = Missing Value Source: NWS Daily Summary

Daily Weather History Graph

Daily Weather History Graph

Search for Another Location

Airport or City:

Trip Planner

Search our weather history database for the weather conditions in past years. The results will help you decide how hot, cold, wet, or windy it might be!

Date:

Astronomy

Jun. 28, 2013 Rise Set
Actual Time 5:26 AM CDT 8:43 PM CDT
Civil Twilight 4:51 AM CDT 9:18 PM CDT
Nautical Twilight 4:05 AM CDT 10:04 PM CDT
Astronomical Twilight 3:10 AM CDT 10:59 PM CDT
Moon No Moon Rise 11:42 AM CDT (6/28)
Length of Visible Light 16h 27m
Length of Day
15h 17m
Waning Gibbous, 66% of the Moon is Illuminated
Jun 28
Waning Gibbous
Jun 29
Last Quarter
Jul 8
New
Jul 15
First Quarter
Jul 22
Full

Hourly Weather History & Observations

Time (CDT) Temp. Dew Point Humidity Pressure Visibility Wind Dir Wind Speed Gust Speed Precip Events Conditions
12:15 AM 66.2 °F 59.9 °F 80% 29.81 in 10.0 mi West 9.2 mph - N/A   Clear
12:35 AM 65.7 °F 59.9 °F 82% 29.81 in 10.0 mi West 9.2 mph - N/A   Clear
12:55 AM 65.5 °F 59.5 °F 81% 29.81 in 10.0 mi WSW 6.9 mph - N/A   Clear
1:15 AM 65.5 °F 59.4 °F 81% 29.80 in 10.0 mi West 8.1 mph - N/A   Clear
1:35 AM 64.8 °F 59.0 °F 82% 29.80 in 10.0 mi WSW 8.1 mph - N/A   Clear
1:55 AM 64.9 °F 59.0 °F 81% 29.80 in 10.0 mi WSW 8.1 mph - N/A   Clear
2:15 AM 64.4 °F 58.6 °F 82% 29.78 in 10.0 mi WSW 6.9 mph - N/A   Clear
2:35 AM 64.0 °F 58.6 °F 83% 29.78 in 10.0 mi WSW 6.9 mph - N/A   Clear
2:55 AM 64.6 °F 59.2 °F 83% 29.77 in 10.0 mi West 9.2 mph - N/A   Mostly Cloudy
3:15 AM 65.5 °F 59.0 °F 80% 29.77 in 10.0 mi West 8.1 mph - N/A   Scattered Clouds
3:35 AM 64.0 °F 58.8 °F 83% 29.77 in 10.0 mi West 8.1 mph - N/A   Clear
3:55 AM 64.6 °F 59.0 °F 82% 29.77 in 10.0 mi NNW 6.9 mph - N/A   Scattered Clouds
4:15 AM 65.7 °F 58.6 °F 78% 29.77 in 10.0 mi NW 6.9 mph - N/A   Scattered Clouds
4:35 AM 64.4 °F 58.6 °F 82% 29.76 in 10.0 mi West 5.8 mph - N/A   Clear
4:55 AM 62.6 °F 58.3 °F 86% 29.76 in 10.0 mi West 8.1 mph - N/A   Clear
5:15 AM 62.1 °F 58.1 °F 87% 29.76 in 10.0 mi West 8.1 mph - N/A   Clear
5:35 AM 61.7 °F 58.1 °F 88% 29.77 in 10.0 mi West 6.9 mph - N/A   Clear
5:55 AM 61.9 °F 58.3 °F 88% 29.77 in 10.0 mi West 8.1 mph - N/A   Clear
6:15 AM 63.0 °F 59.0 °F 87% 29.77 in 10.0 mi West 8.1 mph - N/A   Clear
6:35 AM 63.9 °F 59.5 °F 86% 29.77 in 10.0 mi West 6.9 mph - N/A   Clear
6:55 AM 65.1 °F 60.1 °F 84% 29.77 in 10.0 mi West 6.9 mph - N/A   Clear
7:55 AM 69.3 °F 61.0 °F 75% 29.77 in 10.0 mi WNW 6.9 mph - N/A   Clear
8:15 AM 70.7 °F 60.3 °F 69% 29.76 in 10.0 mi WNW 9.2 mph - N/A   Clear
8:35 AM 71.8 °F 60.3 °F 67% 29.76 in 10.0 mi WNW 9.2 mph - N/A   Clear
8:55 AM 72.9 °F 60.8 °F 66% 29.76 in 10.0 mi WNW 9.2 mph - N/A   Clear
9:15 AM 74.3 °F 60.1 °F 61% 29.75 in 10.0 mi WNW 9.2 mph - N/A   Clear
9:35 AM 74.8 °F 59.0 °F 58% 29.75 in 10.0 mi WNW 13.8 mph 20.7 mph N/A   Clear
9:55 AM 75.6 °F 59.9 °F 58% 29.74 in 10.0 mi WNW 8.1 mph 17.3 mph N/A   Clear
10:15 AM 76.3 °F 58.3 °F 54% 29.74 in 10.0 mi WNW 10.4 mph 17.3 mph N/A   Clear
10:35 AM 76.8 °F 58.3 °F 53% 29.74 in 10.0 mi WNW 10.4 mph 20.7 mph N/A   Clear
10:55 AM 77.5 °F 58.1 °F 51% 29.74 in 10.0 mi NW 16.1 mph 20.7 mph N/A   Clear
11:15 AM 76.6 °F 58.1 °F 53% 29.74 in 10.0 mi West 12.7 mph 19.6 mph N/A   Scattered Clouds
11:35 AM 77.9 °F 59.2 °F 52% 29.74 in 10.0 mi West 16.1 mph 20.7 mph N/A   Scattered Clouds
11:55 AM 77.5 °F 58.5 °F 52% 29.73 in 10.0 mi West 15.0 mph 25.3 mph N/A   Mostly Cloudy
12:15 PM 76.6 °F 57.7 °F 52% 29.73 in 10.0 mi WNW 15.0 mph 20.7 mph N/A   Mostly Cloudy
12:35 PM 77.2 °F 59.2 °F 54% 29.72 in 10.0 mi WNW 11.5 mph - N/A   Mostly Cloudy
12:55 PM 76.3 °F 58.1 °F 53% 29.72 in 10.0 mi WNW 11.5 mph 19.6 mph N/A   Scattered Clouds
1:15 PM 76.1 °F 57.6 °F 53% 29.72 in 10.0 mi NW 15.0 mph 18.4 mph N/A   Scattered Clouds
1:35 PM 76.1 °F 57.9 °F 53% 29.72 in 10.0 mi WNW 11.5 mph 25.3 mph N/A   Scattered Clouds
1:55 PM 75.4 °F 57.7 °F 54% 29.72 in 10.0 mi WNW 15.0 mph 21.9 mph N/A   Mostly Cloudy
2:15 PM 75.2 °F 58.1 °F 55% 29.72 in 10.0 mi WNW 16.1 mph 24.2 mph N/A   Overcast
2:35 PM 70.7 °F 60.6 °F 70% 29.72 in 10.0 mi North 11.5 mph 19.6 mph N/A   Overcast
2:55 PM 71.2 °F 62.4 °F 74% 29.72 in 10.0 mi NNW 8.1 mph 16.1 mph N/A   Mostly Cloudy
3:15 PM 73.9 °F 61.5 °F 65% 29.71 in 10.0 mi NNW 13.8 mph 18.4 mph N/A   Mostly Cloudy
3:35 PM 75.0 °F 61.3 °F 62% 29.71 in 10.0 mi NW 13.8 mph - N/A   Overcast
3:55 PM 76.1 °F 61.2 °F 60% 29.71 in 10.0 mi NW 16.1 mph 20.7 mph N/A   Mostly Cloudy
4:15 PM 74.5 °F 60.4 °F 61% 29.71 in 10.0 mi NW 16.1 mph 19.6 mph N/A   Mostly Cloudy
4:35 PM 75.4 °F 61.9 °F 63% 29.71 in 10.0 mi NW 15.0 mph 18.4 mph N/A   Mostly Cloudy
4:55 PM 75.9 °F 61.3 °F 60% 29.70 in 10.0 mi WNW 17.3 mph 23.0 mph N/A   Mostly Cloudy
5:15 PM 74.3 °F 60.8 °F 63% 29.71 in 10.0 mi WNW 13.8 mph 24.2 mph N/A   Overcast
5:35 PM 70.9 °F 62.8 °F 75% 29.71 in 10.0 mi NW 15.0 mph 18.4 mph N/A   Overcast
5:55 PM 66.6 °F 62.8 °F 88% 29.71 in 5.0 mi NW 9.2 mph - 0.08 in   Overcast
6:15 PM 68.5 °F 63.9 °F 85% 29.71 in 10.0 mi NW 6.9 mph - N/A   Mostly Cloudy
6:35 PM 68.4 °F 64.4 °F 87% 29.71 in 10.0 mi NW 6.9 mph - N/A   Mostly Cloudy
6:55 PM 68.2 °F 64.2 °F 87% 29.71 in 4.0 mi NW 9.2 mph - 0.06 in   Overcast
7:15 PM 68.4 °F 63.3 °F 84% 29.70 in 10.0 mi WNW 9.2 mph 17.3 mph 0.03 in   Mostly Cloudy
7:35 PM 68.0 °F 63.3 °F 85% 29.70 in 10.0 mi WNW 8.1 mph - 0.03 in   Scattered Clouds
7:55 PM 68.2 °F 63.1 °F 84% 29.70 in 10.0 mi NW 8.1 mph - 0.03 in   Scattered Clouds
8:15 PM 67.6 °F 62.8 °F 84% 29.71 in 10.0 mi NW 8.1 mph - N/A   Scattered Clouds
8:35 PM 67.6 °F 63.1 °F 85% 29.71 in 10.0 mi NW 6.9 mph - N/A   Mostly Cloudy
8:55 PM 67.5 °F 63.5 °F 87% 29.71 in 10.0 mi NW 3.5 mph - N/A   Overcast
9:15 PM 65.8 °F 61.7 °F 86% 29.71 in 7.0 mi NNW 8.1 mph - 0.05 in   Overcast
9:35 PM 65.3 °F 61.7 °F 88% 29.71 in 10.0 mi WNW 5.8 mph - 0.06 in   Mostly Cloudy
9:55 PM 64.4 °F 61.3 °F 90% 29.70 in 10.0 mi West 5.8 mph - 0.06 in   Scattered Clouds
10:15 PM 64.2 °F 61.5 °F 91% 29.71 in 10.0 mi WNW 5.8 mph - N/A   Clear
10:35 PM 64.2 °F 61.7 °F 91% 29.71 in 10.0 mi WNW 4.6 mph - N/A   Scattered Clouds
10:55 PM 64.8 °F 61.9 °F 90% 29.70 in 10.0 mi WNW 8.1 mph - N/A   Scattered Clouds
11:15 PM 64.9 °F 61.7 °F 89% 29.70 in 10.0 mi NW 5.8 mph - N/A   Scattered Clouds
11:35 PM 64.4 °F 61.3 °F 90% 29.70 in 10.0 mi North 3.5 mph - N/A   Scattered Clouds
11:55 PM 64.4 °F 61.7 °F 91% 29.69 in 10.0 mi Calm Calm - N/A   Mostly Cloudy